This demonstration page uses our WeatherBlox Daily Observations layout. Learn more.

Left ArrowRight Arrow

Hourly Observations for August 31, 2018

Temp ( °F °C ) Dew Point ( °F °C ) Humidity (%) Winds ( mph kmh ) Pressure ( in mb ) Visibility ( mi km ) Precip ( " mm )
12:15 am 00:15 Cloudy with Thunderstorms 74 23.3 70 21.1 88 88 VRB 3 6 30.18 1022 2 3 0.08 2.03
12:18 am 00:18 Cloudy with Thunderstorms 74 23.3 70 21.1 88 88 Calm 30.18 1022 1 2 0.14 3.56
12:27 am 00:27 Cloudy with Thunderstorms 74 23.3 71 21.7 91 91 ENE 12 19 30.15 1021 2 3 0.26 6.60
12:34 am 00:34 Cloudy with Thunderstorms 74 23.3 71 21.7 91 91 ENE 13 20 30.15 1021 3 5 0.29 7.37
12:59 am 00:59 Cloudy with Thunderstorms 74 23.3 71 21.7 91 91 N 5 7 30.16 1021 8 13 0.30 7.62
1:52 am 01:52 Cloudy 74 23.3 71 21.7 91 91 ESE 5 7 30.12 1020 9 14 0.00 0.03
1:59 am 01:59 Cloudy 74 23.3 71 21.7 91 91 SE 5 7 30.11 1020 9 14 0.00 0.03
2:59 am 02:59 Cloudy 73 22.8 71 21.7 94 94 Calm 30.09 1019 7 11 0.00 0.00
3:59 am 03:59 Cloudy 73 22.8 71 21.7 94 94 WSW 3 6 30.11 1020 8 13 0.00 0.00
4:59 am 04:59 Cloudy 75 23.9 71 21.7 88 88 WNW 5 7 30.12 1020 10 16 0.00 0.00
5:59 am 05:59 Cloudy 74 23.3 71 21.7 91 91 Calm 30.12 1020 8 13 0.00 0.00
6:59 am 06:59 Mostly Cloudy 73 22.8 72 22.2 96 96 Calm 30.14 1021 5 8 0.00 0.00
7:59 am 07:59 Mostly Cloudy 77 25 74 23.3 90 90 NW 5 7 30.16 1021 7 11 0.00 0.00
8:59 am 08:59 Partly Cloudy 80 26.7 73 22.8 79 79 E 6 9 30.15 1021 9 14 0.00 0.00
9:59 am 09:59 Partly Cloudy 81 27.2 73 22.8 77 77 ENE 6 9 30.17 1022 10 16 0.00 0.00
10:59 am 10:59 Partly Cloudy 83 28.3 74 23.3 74 74 VRB 5 7 30.18 1022 10 16 0.00 0.00
11:59 am 11:59 Partly Cloudy 84 28.9 74 23.3 72 72 NE 8 13 30.17 1022 10 16 0.00 0.00
12:59 pm 12:59 Partly Cloudy 85 29.4 74 23.3 70 70 NE 9 15 30.16 1021 10 16 0.00 0.00
1:59 pm 13:59 Mostly Sunny 85 29.4 75 23.9 72 72 ENE 10 17 30.15 1021 10 16 0.00 0.00
2:59 pm 14:59 Partly Cloudy 85 29.4 76 24.4 75 75 ENE 8 13 30.15 1021 9 14 0.00 0.00
3:51 pm 15:51 Partly Cloudy with Thunderstorms 84 28.9 75 23.9 74 74 ENE 10 17 30.12 1020 10 16 0.00 0.00
3:59 pm 15:59 Partly Cloudy with Thunderstorms 84 28.9 75 23.9 74 74 ENE 12 19 30.13 1020 10 16 0.00 0.00
4:59 pm 16:59 Mostly Cloudy with Thunderstorms 81 27.2 75 23.9 82 82 E 10 17 30.14 1021 9 14 0.00 0.00
5:59 pm 17:59 Mostly Cloudy with Thunderstorms 74 23.3 71 21.7 91 91 E 5 7 30.12 1020 10 16 0.18 4.57
6:59 pm 18:59 Mostly Cloudy with Thunderstorms 74 23.3 71 21.7 91 91 ESE 3 6 30.14 1021 10 16 0.00 0.00
7:30 pm 19:30 Mostly Cloudy 74 23.3 71 21.7 91 91 SSW 7 11 30.15 1021 10 16 0.00 0.00
8:59 pm 20:59 Cloudy 73 22.8 71 21.7 94 94 SSE 3 6 30.15 1021 10 16 0.00 0.00
9:59 pm 21:59 Mostly Cloudy 73 22.8 70 21.1 90 90 S 5 7 30.16 1021 10 16 0.00 0.00
10:59 pm 22:59 Mostly Cloudy 73 22.8 70 21.1 90 90 Calm 30.17 1022 10 16 0.00 0.00
11:59 pm 23:59 Mostly Cloudy 73 22.8 71 21.7 94 94 E 3 6 30.18 1022 10 16 0.00 0.00

Powered by AerisWeather